When you browse on this site, cookies collect data to enhance your experience and personalize the content and advertising you see.
Visit our Privacy Policy to learn more. By continuing to use the site, you agree to this use of cookies and data.
EN

Hourly Weather Pitushkiv

Today, 8 July, Wednesday

Time Temperature Precipitation Wind Pressure Humidity
00:00 +11°C° 0 mm 3 mps 741 mmHg 94%
01:00 +10°C° 0 mm 3 mps 741 mmHg 94%
02:00 +10°C° 0 mm 3 mps 741 mmHg 94%
03:00 +10°C° 0 mm 3 mps 741 mmHg 95%
04:00 +9°C° 0 mm 3 mps 741 mmHg 95%
05:00 +9°C° 0 mm 3 mps 741 mmHg 95%
06:00 +11°C° 0 mm 3 mps 741 mmHg 91%
07:00 +12°C° 0 mm 3 mps 742 mmHg 87%
08:00 +14°C° 0 mm 3 mps 742 mmHg 84%
09:00 +16°C° 0.1 mm 3 mps 742 mmHg 78%
10:00 +17°C° 0.1 mm 4 mps 742 mmHg 72%
11:00 +17°C° 0.1 mm 5 mps 742 mmHg 67%
12:00 +19°C° 0.1 mm 5 mps 742 mmHg 65%
13:00 +19°C° 0.1 mm 5 mps 742 mmHg 64%
14:00 +20°C° 0.1 mm 5 mps 742 mmHg 62%
15:00 +19°C° 0 mm 5 mps 742 mmHg 65%
16:00 +19°C° 0 mm 5 mps 742 mmHg 67%
17:00 +19°C° 0 mm 5 mps 742 mmHg 69%
18:00 +18°C° 0 mm 4 mps 742 mmHg 75%
19:00 +16°C° 0 mm 3 mps 742 mmHg 80%
20:00 +15°C° 0 mm 2 mps 742 mmHg 85%
21:00 +15°C° 0 mm 2 mps 742 mmHg 84%
22:00 +15°C° 0 mm 2 mps 742 mmHg 84%
23:00 +15°C° 0 mm 2 mps 742 mmHg 83%

Tomorrow, 9 July, Thursday

Time Temperature Precipitation Wind Pressure Humidity
00:00 +15°C° 0.7 mm 2 mps 742 mmHg 88%
01:00 +14°C° 0.7 mm 2 mps 742 mmHg 92%
02:00 +14°C° 0.7 mm 2 mps 743 mmHg 97%
03:00 +13°C° 1.1 mm 1 mps 742 mmHg 97%
04:00 +13°C° 1.1 mm 1 mps 742 mmHg 97%
05:00 +13°C° 1.1 mm 1 mps 742 mmHg 97%
06:00 +14°C° 0.1 mm 2 mps 743 mmHg 93%
07:00 +15°C° 0.1 mm 2 mps 743 mmHg 89%
08:00 +15°C° 0.1 mm 2 mps 743 mmHg 85%
09:00 +16°C° 0.1 mm 2 mps 744 mmHg 80%
10:00 +17°C° 0.1 mm 2 mps 744 mmHg 76%
11:00 +19°C° 0.1 mm 2 mps 744 mmHg 71%
12:00 +19°C° 0.2 mm 2 mps 744 mmHg 70%
13:00 +19°C° 0.2 mm 2 mps 744 mmHg 69%
14:00 +20°C° 0.2 mm 2 mps 744 mmHg 68%
15:00 +20°C° 0.3 mm 2 mps 744 mmHg 69%
16:00 +20°C° 0.3 mm 2 mps 744 mmHg 71%
17:00 +20°C° 0.3 mm 2 mps 744 mmHg 72%
18:00 +19°C° 0.1 mm 2 mps 743 mmHg 76%
19:00 +19°C° 0.1 mm 1 mps 743 mmHg 81%
20:00 +15°C° 0.1 mm 0 mps 743 mmHg 85%
21:00 +16°C° 0 mm 1 mps 744 mmHg 86%
22:00 +15°C° 0 mm 1 mps 744 mmHg 88%
23:00 +15°C° 0 mm 2 mps 744 mmHg 89%

Day after tomorrow, 10 July, Friday

Time Temperature Precipitation Wind Pressure Humidity
00:00 +14°C° 0 mm 2 mps 744 mmHg 90%
01:00 +14°C° 0 mm 2 mps 744 mmHg 91%
02:00 +14°C° 0 mm 2 mps 744 mmHg 92%
03:00 +14°C° 0 mm 2 mps 744 mmHg 92%
04:00 +14°C° 0 mm 2 mps 743 mmHg 92%
05:00 +13°C° 0 mm 3 mps 743 mmHg 92%
06:00 +16°C° 0 mm 3 mps 743 mmHg 89%
07:00 +17°C° 0 mm 4 mps 743 mmHg 87%
08:00 +19°C° 0 mm 4 mps 744 mmHg 84%
09:00 +20°C° 0 mm 4 mps 743 mmHg 80%
10:00 +22°C° 0 mm 4 mps 743 mmHg 76%
11:00 +25°C° 0 mm 5 mps 743 mmHg 72%
12:00 +25°C° 0.1 mm 5 mps 743 mmHg 71%
13:00 +26°C° 0.1 mm 5 mps 743 mmHg 70%
14:00 +27°C° 0.1 mm 5 mps 742 mmHg 69%
15:00 +27°C° 0.5 mm 5 mps 742 mmHg 71%
16:00 +26°C° 0.5 mm 5 mps 742 mmHg 74%
17:00 +26°C° 0.5 mm 5 mps 742 mmHg 76%
18:00 +25°C° 0.2 mm 4 mps 742 mmHg 80%
19:00 +23°C° 0.2 mm 4 mps 742 mmHg 84%
20:00 +22°C° 0.2 mm 3 mps 742 mmHg 87%
21:00 +21°C° 0 mm 3 mps 742 mmHg 89%
22:00 +20°C° 0 mm 4 mps 742 mmHg 90%
23:00 +20°C° 0 mm 4 mps 742 mmHg 91%

11 July, Saturday

Time Temperature Precipitation Wind Pressure Humidity
00:00 +19°C° 0 mm 4 mps 742 mmHg 90%
01:00 +19°C° 0 mm 4 mps 742 mmHg 90%
02:00 +18°C° 0 mm 3 mps 742 mmHg 89%
03:00 +18°C° 0 mm 3 mps 742 mmHg 90%
04:00 +18°C° 0 mm 3 mps 742 mmHg 90%
05:00 +17°C° 0 mm 3 mps 742 mmHg 90%
06:00 +19°C° 0 mm 3 mps 742 mmHg 87%
07:00 +21°C° 0 mm 4 mps 742 mmHg 85%
08:00 +22°C° 0 mm 4 mps 742 mmHg 82%
09:00 +25°C° 0 mm 4 mps 742 mmHg 77%
10:00 +27°C° 0 mm 3 mps 742 mmHg 72%
11:00 +28°C° 0 mm 3 mps 742 mmHg 67%
12:00 +29°C° 0.1 mm 3 mps 742 mmHg 64%
13:00 +30°C° 0.1 mm 3 mps 742 mmHg 60%
14:00 +30°C° 0.1 mm 3 mps 741 mmHg 56%
15:00 +30°C° 0 mm 3 mps 741 mmHg 59%
16:00 +30°C° 0 mm 3 mps 741 mmHg 62%
17:00 +30°C° 0 mm 3 mps 741 mmHg 65%
18:00 +28°C° 0.7 mm 3 mps 741 mmHg 71%
19:00 +26°C° 0.7 mm 3 mps 741 mmHg 78%
20:00 +24°C° 0.7 mm 3 mps 741 mmHg 84%
21:00 +21°C° 1.2 mm 4 mps 742 mmHg 88%
22:00 +20°C° 1.2 mm 5 mps 742 mmHg 92%
23:00 +17°C° 1.2 mm 6 mps 742 mmHg 96%

12 July, Sunday

Time Temperature Precipitation Wind Pressure Humidity
00:00 +17°C° 0.6 mm 5 mps 742 mmHg 96%
01:00 +16°C° 0.6 mm 5 mps 742 mmHg 96%
02:00 +16°C° 0.6 mm 5 mps 742 mmHg 96%
03:00 +15°C° 0.2 mm 5 mps 742 mmHg 95%
04:00 +14°C° 0.2 mm 6 mps 743 mmHg 95%
05:00 +13°C° 0.2 mm 6 mps 743 mmHg 94%
06:00 +12°C° 0.3 mm 7 mps 743 mmHg 93%
07:00 +11°C° 0.3 mm 7 mps 744 mmHg 92%
08:00 +11°C° 0.3 mm 7 mps 744 mmHg 91%
09:00 +11°C° 0.8 mm 6 mps 745 mmHg 92%
10:00 +10°C° 0.8 mm 6 mps 745 mmHg 92%
11:00 +10°C° 0.8 mm 5 mps 745 mmHg 93%
12:00 +11°C° 0.6 mm 4 mps 746 mmHg 92%
13:00 +11°C° 0.6 mm 4 mps 746 mmHg 91%
14:00 +12°C° 0.6 mm 3 mps 746 mmHg 90%
15:00 +13°C° 0 mm 3 mps 746 mmHg 85%
16:00 +14°C° 0 mm 3 mps 746 mmHg 81%
17:00 +16°C° 0 mm 3 mps 746 mmHg 76%
18:00 +16°C° 0 mm 2 mps 746 mmHg 80%
19:00 +15°C° 0 mm 2 mps 746 mmHg 83%
20:00 +15°C° 0 mm 1 mps 746 mmHg 87%
21:00 +14°C° 0 mm 2 mps 746 mmHg 89%
22:00 +13°C° 0 mm 2 mps 746 mmHg 92%
23:00 +11°C° 0 mm 3 mps 746 mmHg 94%

13 July, Monday

Time Temperature Precipitation Wind Pressure Humidity
00:00 +11°C° 0 mm 3 mps 746 mmHg 94%
01:00 +11°C° 0 mm 3 mps 746 mmHg 94%
02:00 +10°C° 0 mm 3 mps 746 mmHg 95%
03:00 +10°C° 0 mm 3 mps 745 mmHg 95%
04:00 +10°C° 0 mm 3 mps 745 mmHg 95%
05:00 +10°C° 0 mm 2 mps 745 mmHg 95%
06:00 +11°C° 0 mm 3 mps 745 mmHg 91%
07:00 +13°C° 0 mm 3 mps 745 mmHg 86%
08:00 +14°C° 0 mm 3 mps 745 mmHg 82%
09:00 +16°C° 0.1 mm 3 mps 745 mmHg 77%
10:00 +17°C° 0.1 mm 3 mps 745 mmHg 72%
11:00 +19°C° 0.1 mm 3 mps 745 mmHg 68%
12:00 +19°C° 0.3 mm 4 mps 745 mmHg 67%
13:00 +19°C° 0.3 mm 4 mps 745 mmHg 67%
14:00 +19°C° 0.3 mm 4 mps 745 mmHg 67%
15:00 +19°C° 0.2 mm 4 mps 744 mmHg 67%
16:00 +19°C° 0.2 mm 4 mps 744 mmHg 68%
17:00 +19°C° 0.2 mm 4 mps 744 mmHg 68%
18:00 +18°C° 0 mm 4 mps 744 mmHg 73%
19:00 +16°C° 0 mm 3 mps 744 mmHg 78%
20:00 +15°C° 0 mm 2 mps 744 mmHg 84%
21:00 +14°C° 0 mm 2 mps 744 mmHg 86%
22:00 +13°C° 0 mm 2 mps 744 mmHg 89%
23:00 +12°C° 0 mm 2 mps 744 mmHg 91%
Show more